Groton, South Dakota, United States (57445)
Lat: 45.45N, Lon: 98.1W
Wx Zone: SDZ006
Local Info
Past Weather Observations for Tuesday, December 16, 2014

NOTE: This archive is for the closest National Weather Service station to Groton. Information may differ from the station used for current weather conditions.

Click here for Long-term Archive

Time Weather Temperature Dewpoint Humidity Pressure Winds Precip Visibility
23:53
Clear
9°F / -13°C 3°F / -16°C 78% 30.36 in
(1028 mb)
N 6.9 mph
(N 11 kph)
- 10SM
22:53
Clear
10°F / -12°C 5°F / -15°C 79% 30.36 in
(1028 mb)
NNW 5.8 mph
(NNW 9 kph)
- 10SM
21:53
Clear
10°F / -12°C 5°F / -15°C 79% 30.36 in
(1028 mb)
NNW 5.8 mph
(NNW 9 kph)
- 10SM
20:53
Clear
10°F / -12°C 7°F / -14°C 85% 30.36 in
(1028 mb)
NW 6.9 mph
(NW 11 kph)
- 10SM
19:53
Clear
10°F / -12°C 7°F / -14°C 85% 30.36 in
(1028 mb)
NW 6.9 mph
(NW 11 kph)
- 10SM
18:53
Clear
12°F / -11°C 7°F / -14°C 79% 30.33 in
(1027 mb)
NNW 3.5 mph
(NNW 6 kph)
- 10SM
17:53
Clear
12°F / -11°C 7°F / -14°C 79% 30.33 in
(1027 mb)
NNW 3.5 mph
(NNW 6 kph)
- 10SM
16:53
Clear
18°F / -8°C 9°F / -13°C 68% 30.33 in
(1027 mb)
N 6.9 mph
(N 11 kph)
- 9SM
15:53
Clear
21°F / -6°C 10°F / -12°C 63% 30.33 in
(1027 mb)
N 9.2 mph
(N 15 kph)
- 10SM
14:53
Clear
21°F / -6°C 9°F / -13°C 58% 30.33 in
(1027 mb)
N 10.4 mph
(N 17 kph)
- 10SM
13:53
Clear
19°F / -7°C 9°F / -13°C 63% 30.33 in
(1027 mb)
N 13.8 mph
(N 22 kph)
- 10SM
12:53
Clear
19°F / -7°C 9°F / -13°C 63% 30.33 in
(1027 mb)
N 18.4 mph
(N 30 kph)
- 10SM
11:53
Clear
19°F / -7°C 9°F / -13°C 63% 30.36 in
(1028 mb)
NNW 16.1 mph
(NNW 26 kph)
- 10SM
10:53
Clear
18°F / -8°C 7°F / -14°C 62% 30.36 in
(1028 mb)
N 18.4 mph
(N 30 kph)
- 10SM
09:53
Clear
16°F / -9°C 7°F / -14°C 67% 30.36 in
(1028 mb)
N 19.6 mph
(N 32 kph)
- 10SM
08:53
Clear
12°F / -11°C 5°F / -15°C 73% 30.33 in
(1027 mb)
N 12.7 mph
(N 20 kph)
- 10SM
07:53
Clear
12°F / -11°C 5°F / -15°C 73% 30.33 in
(1027 mb)
NNW 12.7 mph
(NNW 20 kph)
- 10SM
06:53
Clear
12°F / -11°C 7°F / -14°C 79% 30.33 in
(1027 mb)
NNW 12.7 mph
(NNW 20 kph)
- 10SM
05:53
Clear
12°F / -11°C 7°F / -14°C 79% 30.3 in
(1026 mb)
N 16.1 mph
(N 26 kph)
- 10SM
04:53
Clear
14°F / -10°C 7°F / -14°C 73% 30.27 in
(1025 mb)
NNW 15 mph
(NNW 24 kph)
- 10SM
03:53
Clear
16°F / -9°C 9°F / -13°C 73% 30.27 in
(1025 mb)
NNW 18.4 mph
(NNW 30 kph)
- 10SM
03:13
Partly Cloudy
18°F / -8°C 10°F / -12°C 73% 30.27 in
(1025 mb)
NNW 20.7 mph
(NNW 33 kph)
- 10SM
02:53
Overcast
19°F / -7°C 12°F / -11°C 73% 30.27 in
(1025 mb)
N 24.2 mph
(N 39 kph)
0.00 in
(0.00 mm)
10SM
01:53
Overcast
Light Snow
21°F / -6°C 16°F / -9°C 80% 30.24 in
(1024 mb)
N 15 mph
(N 24 kph)
0.00 in
(0.00 mm)
8SM
00:53
Overcast
Light Snow
21°F / -6°C 16°F / -9°C 80% 30.24 in
(1024 mb)
N 19.6 mph
(N 32 kph)
0.00 in
(0.00 mm)
5SM
Time Weather Temperature Dewpoint Humidity Pressure Winds Precip Visibility


Weather for websites

WeatherForYou.com, LLC is not responsible for any damages or problems caused by this service. Current weather conditions are obtained from the closest station including government and personal stations which may have varying degrees of accuracy. Weather forecasts are derived from the NOAA NDFD. Like all things, this site belongs to Jesus Christ... He just trusts me to maintain it. If you have any questions or comments email webmaster@weatherforyou.com

Copyright © 2014, WeatherForYou.com LLC. All rights reserved.